EUTELSAT 36A

Last updated on Feb. 26, 2017, 12:17 a.m. UTC

1 26369U 00028A   17055.70673149 -.00000151  00000-0  00000-0 0  9999
2 26369   0.7799  84.8480 0001763 269.3187 135.5002  1.00270871 61352
UTC
Height (km)
Latitude
Longitude
Inclination
Orbital Period
UTC large
Height (km)
Speed (km/s)
/
Latitude / Longitude
Inclination (degrees)
Orbital Period (minutes)
Azimuth
Elevation
Range (km)
Doppler Factor
iOS Compass Heading
iOS Angle

Next 30 passes for location: Hong Kong

Rise time Rise Azimuth (degrees) Set time Set Azimuth (degrees) Duration Max altitude (degrees)

No matching passes for this satellites